WGS F4 (USA 233)

Last updated on Fri Jul 11 2025 00:02:43 GMT+0000 (Coordinated Universal Time)

1 38070U 12003A 25191.64226251 -.00000203 00000+0 00000+0 0 9994 2 38070 0.0191 53.7153 0000380 124.8627 69.8625 1.00269839 40723
UTC large
Height (km)
Speed (km/s)
/
Latitude / Longitude
Inclination (degrees)
Orbital Period (minutes)
Azimuth
Elevation
Range (km)
Doppler Factor

Next 0 passes for location: London (51.5072 / 0.1276)

Sorry there are no passes over London.